[[{"header":{"parameterUnit":"m.s-1","parameterCategory":1,"la1":30.2991,"la2":30.254,"lo1":-89.0895,"lo2":-89.0444,"dy":0.0017,"dx":0.0017,"nx":28,"ny":28,"refTime":"2023-07-23T09:00:00:Z","depth":0,"parameterNumber":2,"parameterNumberName":"U-component_of_WINDS"},"data":[0,0,0,0,0,0,0,0,0,0,0,0,0,0,0,0,0,0,0,0,0,0,0,0,0,0,0,0,0,0,0,0,0,0,0,0,0,0,0,0,0,0,0,0,0,0,0,0,0,0,0,0,0,0,0,0,0,0,1.5457,1.5458,0,1.5569,1.557,1.5572,1.5592,1.5591,1.559,1.5589,1.5706,1.571,1.5714,0,0,0,0,0,0,0,0,0,0,0,0,0,1.5259,1.5263,1.5457,1.5458,1.5459,1.5569,1.557,1.5572,1.5592,1.5591,1.5589,1.5588,1.5705,1.5709,1.5714,0,0,0,0,0,0,0,0,0,0,0,0,0,1.5356,1.5264,1.5456,1.5482,1.5486,1.5569,1.5571,1.5572,1.5592,1.5591,1.5589,1.5588,1.5703,1.5709,1.5715,1.578,0,0,1.5733,1.5736,0,0,0,0,0,0,0,0,1.535,1.5363,1.5477,1.5481,1.5485,1.5565,1.5544,1.5642,1.5592,1.5552,1.5589,1.5587,1.566,1.567,1.5694,1.5785,1.579,1.5734,1.5737,1.574,1.5741,0,0,0,0,0,0,0,1.5344,1.5358,1.5501,1.5479,1.5484,1.5489,1.5501,1.5563,1.5613,1.5555,1.5557,1.557,1.5662,1.5688,1.5697,1.5792,1.5733,1.5739,1.5742,1.5745,1.5941,1.5942,0,0,0,0,0,0,1.5332,1.5353,1.5498,1.5505,1.5413,1.5493,1.5507,1.5541,1.5612,1.5621,1.5571,1.557,1.5679,1.569,1.5701,1.578,1.574,1.5745,1.5749,1.5939,1.5941,1.5943,0,0,0,0,0,0,1.5328,1.5345,1.5493,1.5429,1.5448,1.5498,1.5536,1.5544,1.557,1.5624,1.5633,1.5588,1.5678,1.5693,1.5759,1.5785,1.5748,1.5753,1.5937,1.594,1.5942,1.594,0,0,0,0,0,0,1.5322,1.5343,1.5369,1.5429,1.5452,1.555,1.5538,1.5547,1.558,1.558,1.5642,1.5652,1.5678,1.575,1.5765,1.5792,1.5758,1.5935,1.5938,1.5941,1.5938,1.5942,1.5946,0,0,0,0,0,1.5315,1.5365,1.537,1.5387,1.5484,1.5551,1.5564,1.5592,1.5582,1.5607,1.5642,1.565,1.578,1.5757,1.5774,1.5803,1.5934,1.5937,1.5941,1.5937,1.5942,1.5946,0,0,0,0,0,0,1.5306,1.5373,1.538,1.545,1.5495,1.5554,1.5588,1.5597,1.5646,1.5644,1.5679,1.5693,1.5757,1.5787,1.5761,1.5869,1.5856,1.5863,1.5847,1.5852,1.5856,1.5847,1.5763,0,0,0,0,0,1.5312,1.5361,1.5417,1.5474,1.5495,1.5537,1.5568,1.5586,1.5633,1.5653,1.5692,1.5738,1.579,1.5823,1.5873,1.5943,1.5956,1.5971,1.5975,1.5978,1.5983,1.6021,1.6027,1.5955,1.5955,1.5954,0,0,1.5326,1.5368,1.5397,1.5473,1.5509,1.5558,1.5553,1.5606,1.5642,1.5661,1.5726,1.5756,1.581,1.5878,1.591,1.5905,1.6006,1.5982,1.5984,1.5988,1.6025,1.6032,1.6038,1.5957,1.5957,1.5956,0,0,1.5375,1.5413,1.5463,1.5499,1.5554,1.5582,1.5594,1.5652,1.5672,1.5738,1.5752,1.5796,1.5884,1.5921,1.5952,1.6013,1.6021,1.6028,1.6048,1.6084,1.6089,1.6095,1.6115,1.6122,1.6034,1.6034,1.6034,0,1.5385,1.5459,1.5488,1.554,1.5572,1.559,1.564,1.5675,1.5743,1.5765,1.5758,1.5867,1.5905,1.5981,1.5996,1.6021,1.6035,1.6021,1.6086,1.6092,1.6097,1.6117,1.6124,1.6034,1.6034,1.6034,1.6034,0,1.5468,1.5519,1.5553,1.5617,1.5654,1.5705,1.5741,1.5775,1.5789,1.5817,1.5883,1.5928,1.5987,1.6007,1.6023,1.6085,1.608,1.6079,1.6066,1.6104,1.6123,1.6131,1.6035,1.6035,1.6035,1.6034,0,0,1.5515,1.5594,1.5606,1.5634,1.5695,1.5735,1.5786,1.5843,1.587,1.5917,1.596,1.6033,1.6032,1.6066,1.6086,1.6118,1.6161,1.6114,1.6115,1.6119,1.6231,1.623,1.6238,1.6168,1.6169,1.617,1.6226,0,1.5571,1.5662,1.5688,1.5765,1.5812,1.5828,1.5873,1.5915,1.5942,1.5986,1.6016,1.6067,1.6063,1.6083,1.6116,1.6149,1.6184,1.6146,1.6207,1.6209,1.6192,1.6248,1.6248,1.6298,1.6234,1.6235,1.6236,0,1.5648,1.5693,1.5774,1.5827,1.5848,1.5887,1.594,1.5982,1.6029,1.6047,1.6084,1.6101,1.6155,1.6139,1.6213,1.6186,1.6213,1.6234,1.6236,1.6242,1.6224,1.6254,1.6315,1.6321,1.6248,1.6247,1.6246,0,1.5672,1.5754,1.5813,1.5837,1.5901,1.5927,1.5956,1.6002,1.6033,1.608,1.61,1.6153,1.6181,1.6222,1.6252,1.6238,1.6322,1.631,1.6338,1.6337,1.6354,1.6352,1.6418,1.6374,1.6374,1.6373,1.6373,0,1.573,1.5778,1.5824,1.586,1.5914,1.5944,1.5997,1.6026,1.6067,1.6108,1.6127,1.6165,1.6203,1.6247,1.6271,1.6328,1.6341,1.6356,1.6362,1.6354,1.6352,1.6371,1.6368,1.6375,1.6375,1.6375,1.6374,0,1.5766,1.5799,1.5863,1.5917,1.5932,1.597,1.6016,1.6052,1.6079,1.6131,1.6145,1.6188,1.624,1.6274,1.6342,1.6358,1.6419,1.6424,1.6402,1.6404,1.643,1.6426,1.6509,1.6521,1.647,1.647,1.647,0,1.58,1.5837,1.5895,1.5923,1.5951,1.5997,1.6029,1.606,1.6092,1.6148,1.6176,1.6229,1.6273,1.6356,1.6393,1.6444,1.645,1.6476,1.6458,1.6448,1.6449,1.6446,1.6449,1.6478,1.6479,1.6479,1.6479,0,1.5857,1.5871,1.5915,1.5965,1.6002,1.6043,1.6084,1.6107,1.6145,1.618,1.6232,1.6266,1.6334,1.6386,1.644,1.6469,1.648,1.6485,1.6493,1.6485,1.647,1.6477,1.6408,1.6482,1.6482,1.6482,1.6482,1.6482,1.5892,1.5925,1.597,1.6019,1.6053,1.609,1.6125,1.6156,1.62,1.6256,1.6272,1.6327,1.6372,1.6446,1.6476,1.6519,1.6516,1.6529,1.6532,1.6535,1.6534,1.6464,1.6529,1.6529,1.6529,1.6529,1.6529,0,1.5948,1.5978,1.6022,1.6078,1.6116,1.6122,1.6168,1.6199,1.6246,1.6287,1.633,1.6389,1.6439,1.648,1.6532,1.6558,1.6565,1.6571,1.6569,1.6575,1.6534,1.6521,1.6565,1.6565,1.6565,1.6565,1.6565,1.6564,1.5982,1.6038,1.6056,1.6128,1.6158,1.621,1.6235,1.627,1.6302,1.6368,1.6409,1.6435,1.6476,1.653,1.6576,1.6587,1.6604,1.6609,1.6621,1.6582,1.6578,1.6574,1.6561,1.6613,1.6613,1.6657,1.6658,1.6658]},{"header":{"parameterUnit":"m.s-1","parameterCategory":1,"la1":30.2991,"la2":30.254,"lo1":-89.0895,"lo2":-89.0444,"dy":0.0017,"dx":0.0017,"nx":28,"ny":28,"refTime":"2023-07-23T09:00:00:Z","depth":0,"parameterNumber":3,"parameterNumberName":"V-component_of_WINDS"},"data":[0,0,0,0,0,0,0,0,0,0,0,0,0,0,0,0,0,0,0,0,0,0,0,0,0,0,0,0,0,0,0,0,0,0,0,0,0,0,0,0,0,0,0,0,0,0,0,0,0,0,0,0,0,0,0,0,0,0,1.9129,1.9129,0,1.9148,1.9148,1.9148,1.9133,1.9133,1.9132,1.9132,1.9149,1.915,1.9151,0,0,0,0,0,0,0,0,0,0,0,0,0,1.9077,1.9078,1.9129,1.9129,1.9129,1.9148,1.9148,1.9148,1.9134,1.9133,1.9132,1.9131,1.9149,1.915,1.9151,0,0,0,0,0,0,0,0,0,0,0,0,0,1.9098,1.9078,1.9129,1.9124,1.9124,1.9148,1.9148,1.9148,1.9134,1.9133,1.9132,1.9131,1.9148,1.915,1.9151,1.918,0,0,1.9156,1.9157,0,0,0,0,0,0,0,0,1.9097,1.91,1.9124,1.9124,1.9124,1.9137,1.9136,1.9159,1.9134,1.913,1.9132,1.913,1.9146,1.9148,1.9153,1.9181,1.9182,1.9156,1.9157,1.9158,1.9158,0,0,0,0,0,0,0,1.9095,1.9099,1.9136,1.9125,1.9125,1.912,1.9122,1.914,1.9143,1.913,1.9129,1.9132,1.9146,1.9152,1.9153,1.9182,1.9156,1.9158,1.9159,1.9159,1.9232,1.9233,0,0,0,0,0,0,1.9094,1.9098,1.9135,1.9137,1.9108,1.9122,1.9124,1.9134,1.9143,1.9143,1.9133,1.9131,1.9149,1.9152,1.9154,1.9187,1.9158,1.9159,1.916,1.9231,1.9233,1.9234,0,0,0,0,0,0,1.9093,1.9098,1.9135,1.9117,1.9121,1.9124,1.9135,1.9135,1.9141,1.9144,1.9145,1.9138,1.9149,1.9152,1.9173,1.9187,1.916,1.9162,1.923,1.9232,1.9233,1.9253,0,0,0,0,0,0,1.9092,1.9098,1.9109,1.9117,1.9122,1.9155,1.9136,1.9136,1.9144,1.9142,1.915,1.915,1.9148,1.9171,1.9175,1.9189,1.9163,1.9229,1.9231,1.9233,1.9252,1.9255,1.9259,0,0,0,0,0,1.909,1.9114,1.911,1.9115,1.9137,1.9156,1.9158,1.9156,1.9145,1.9156,1.9158,1.915,1.9185,1.9174,1.9178,1.9192,1.9228,1.923,1.9232,1.925,1.9255,1.9259,0,0,0,0,0,0,1.9107,1.9115,1.9111,1.9138,1.9146,1.9153,1.9167,1.9161,1.9172,1.917,1.9166,1.9168,1.919,1.9194,1.918,1.922,1.9205,1.9208,1.9217,1.9221,1.9225,1.9223,1.9164,0,0,0,0,0,1.9114,1.913,1.9135,1.9159,1.9163,1.9165,1.9173,1.917,1.9178,1.9181,1.9185,1.9193,1.9205,1.9213,1.9225,1.9252,1.9253,1.9264,1.9268,1.9271,1.9273,1.9286,1.9291,1.9241,1.9241,1.9241,0,0,1.9129,1.9135,1.9145,1.9163,1.9169,1.9183,1.9168,1.9184,1.9195,1.9184,1.9204,1.9207,1.9215,1.9239,1.925,1.9243,1.9287,1.9274,1.9276,1.9277,1.9289,1.9294,1.9298,1.9242,1.9242,1.9242,0,0,1.9163,1.917,1.9189,1.9196,1.9205,1.9206,1.921,1.9218,1.922,1.924,1.9232,1.9244,1.9266,1.9272,1.9278,1.9313,1.9305,1.9317,1.9335,1.9348,1.9352,1.9356,1.9367,1.9371,1.932,1.932,1.932,0,1.9179,1.9202,1.92,1.9217,1.9225,1.9216,1.9235,1.9241,1.9254,1.9258,1.925,1.9277,1.9282,1.9306,1.9315,1.9321,1.9325,1.9316,1.9352,1.9355,1.9358,1.9369,1.9373,1.9321,1.9321,1.9321,1.932,0,1.9221,1.9237,1.9252,1.9265,1.9274,1.9292,1.9291,1.9301,1.9297,1.9298,1.9319,1.9324,1.9336,1.9342,1.9339,1.9366,1.9361,1.9353,1.9337,1.9364,1.9374,1.9378,1.9323,1.9322,1.9322,1.9321,0,0,1.9267,1.9277,1.9283,1.9288,1.9297,1.9309,1.9326,1.9339,1.9346,1.9355,1.9368,1.9387,1.9379,1.9385,1.9383,1.9394,1.942,1.9384,1.9384,1.9389,1.9448,1.9454,1.9459,1.9415,1.9416,1.9417,1.9447,0,1.93,1.933,1.9328,1.9356,1.937,1.9361,1.9376,1.9383,1.9384,1.9395,1.9397,1.9409,1.9398,1.9402,1.9413,1.9414,1.9431,1.9412,1.9426,1.9427,1.9423,1.9464,1.947,1.9499,1.9451,1.9452,1.9452,0,1.9343,1.9353,1.9383,1.9389,1.9395,1.9408,1.9418,1.943,1.9437,1.9437,1.9444,1.9439,1.9455,1.944,1.9462,1.9449,1.9454,1.9456,1.9457,1.9457,1.944,1.9464,1.9508,1.9512,1.9458,1.9458,1.9458,0,1.9371,1.9392,1.9412,1.9417,1.9425,1.9435,1.9438,1.9445,1.9452,1.9461,1.9465,1.9476,1.9482,1.949,1.9488,1.9477,1.9509,1.9494,1.9508,1.9508,1.9515,1.9514,1.9559,1.952,1.952,1.952,1.952,0,1.9408,1.9426,1.9425,1.9437,1.9457,1.9454,1.9473,1.9476,1.9481,1.9493,1.9486,1.9497,1.9494,1.9505,1.9503,1.952,1.9523,1.9523,1.9522,1.9523,1.9523,1.9526,1.9523,1.9521,1.9521,1.9521,1.9521,0,1.9442,1.9443,1.9464,1.947,1.9471,1.9485,1.949,1.9501,1.9502,1.9516,1.952,1.9521,1.9533,1.9531,1.9545,1.9544,1.9565,1.9562,1.9562,1.9561,1.9575,1.9573,1.9622,1.9628,1.9587,1.9587,1.9588,0,1.9465,1.9478,1.9486,1.9493,1.9498,1.951,1.9517,1.9515,1.9523,1.9531,1.9541,1.9552,1.9561,1.9581,1.9582,1.9592,1.9589,1.9605,1.959,1.959,1.9588,1.9586,1.9587,1.9608,1.9608,1.9609,1.9609,0,1.9505,1.9504,1.9515,1.9526,1.9535,1.9543,1.9551,1.9557,1.9555,1.9564,1.9576,1.9583,1.9597,1.9608,1.9618,1.9621,1.9614,1.9614,1.9618,1.9618,1.9617,1.9616,1.9569,1.9613,1.9612,1.9612,1.9612,1.9612,1.9533,1.9544,1.9551,1.9563,1.9568,1.9575,1.9586,1.9587,1.9598,1.9609,1.9607,1.962,1.9626,1.9638,1.9642,1.9652,1.9646,1.9651,1.9653,1.9654,1.9655,1.9616,1.9654,1.9654,1.9654,1.9654,1.9654,0,1.9571,1.9575,1.9586,1.9597,1.9606,1.96,1.9608,1.9616,1.9628,1.9634,1.9643,1.9656,1.9667,1.9669,1.9679,1.9687,1.9684,1.9689,1.9688,1.9688,1.966,1.9656,1.9691,1.9691,1.9691,1.9691,1.9691,1.9691,1.9592,1.961,1.961,1.9631,1.9634,1.9648,1.9652,1.9658,1.9663,1.9679,1.9687,1.9689,1.9693,1.9703,1.9712,1.9712,1.9716,1.9722,1.9721,1.9694,1.969,1.9687,1.9682,1.9723,1.9723,1.9748,1.9748,1.9748]}]]